Content
SEND FEEDBACK

Daily
Averages
Monthly
Summary
United States of America

BROOKLYN, NEW YORK


Home > North America > United States > New York
Elevation: 2 feet     Latitude: 40 36N     Longitude: 073 59W

WEATHER
 
SELECT A DAY
Number of Records: 189,034;   Date Range: 1/1/95 - 11/24/14
 
SHARE

PRINT THIS DATA

[ ← Previous Day ]
WEATHER ALMANAC - JUNE 12, 2013
[ Next Day → ]
[ °C ]   °F
Weather ElementAverageHighLow
Temperature71.6 °F77 °F (2:51 pm)66 °F (11:51 pm)
Dewpoint51.9 °F60.1 °F (2:51 am)48.9 °F (4:51 pm)
Humidity50.4 %71 % (2:51 am)38 % (4:51 pm)
Barometer29.79 in29.86 in (8:51 pm)29.72 in (2:51 am)
Wind Speed15.5 mph24.2 mph (5:51 am)
Wind Gust33.4 mph (10:51 am)
Weather ElementAverage
Visibility10 mi
Wind DirectionWNW (275.7 °)

Weather ElementTotal
Precipitation---
Cooling Degree Days6.5 (Base 65)
Growing Degree Days21.5 (Base 50)
Averaged from 23 records on June 12, 2013
WEATHER CONDITIONS BREAKOUT
WIND DIRECTION BREAKOUT
WEATHER BY HOUR - JUNE 12, 2013
[ °C ]   °F
Local TimeTemperatureDewpointHumidityBarometerVisibilityWind DirectionWind SpeedGust SpeedPrecipitationEventsConditions
1:51 AM70.0 °F57.0 °F63 %29.73 in10.0 miWNW (290°)13.8 mphScattered Clouds
2:51 AM70.0 °F60.1 °F71 %29.72 in10.0 miWest (270°)12.7 mphMostly Cloudy
3:51 AM70.0 °F59.0 °F68 %29.72 in10.0 miWest (270°)16.1 mphMostly Cloudy
4:51 AM69.1 °F57.0 °F65 %29.74 in10.0 miWNW (290°)17.3 mph23.0 mphScattered Clouds
5:51 AM68.0 °F52.0 °F56 %29.75 in10.0 miNW (310°)24.2 mph31.1 mphScattered Clouds
6:51 AM66.9 °F50.0 °F54 %29.76 in10.0 miNW (320°)19.6 mph28.8 mphScattered Clouds
7:51 AM68.0 °F51.1 °F55 %29.78 in10.0 miNW (310°)12.7 mph25.3 mphScattered Clouds
8:51 AM68.0 °F50.0 °F52 %29.78 in10.0 miWNW (300°)23.0 mph29.9 mphScattered Clouds
9:51 AM70.0 °F51.1 °F51 %29.79 in10.0 miNW (310°)18.4 mph31.1 mphScattered Clouds
10:51 AM71.1 °F50.0 °F47 %29.79 in10.0 miNW (310°)20.7 mph33.4 mphScattered Clouds
11:51 AM72.0 °F51.1 °F48 %29.80 in10.0 miWest (280°)18.4 mph26.5 mphScattered Clouds
12:51 PM75.0 °F52.0 °F44 %29.80 in10.0 miNW (310°)16.1 mph23.0 mphScattered Clouds
1:51 PM75.9 °F51.1 °F42 %29.80 in10.0 miNW (310°)24.2 mph29.9 mphScattered Clouds
2:51 PM77.0 °F51.1 °F40 %29.81 in10.0 miNW (320°)20.7 mph31.1 mphScattered Clouds
3:51 PM75.9 °F51.1 °F42 %29.80 in10.0 miNNW (330°)17.3 mph26.5 mphScattered Clouds
4:51 PM75.9 °F48.9 °F38 %29.80 in10.0 miNorth (350°)17.3 mph29.9 mphScattered Clouds
5:51 PM75.9 °F48.9 °F38 %29.82 in10.0 miNNW (340°)18.4 mph24.2 mphScattered Clouds
6:51 PM75.0 °F48.9 °F40 %29.82 in10.0 miNNW (330°)16.1 mph24.2 mphScattered Clouds
7:51 PM73.9 °F48.9 °F41 %29.84 in10.0 miNorth (350°)13.8 mphScattered Clouds
8:51 PM73.0 °F50.0 °F44 %29.86 in10.0 miNNW (330°)9.2 mphScattered Clouds
9:51 PM71.1 °F50.0 °F47 %29.86 in10.0 miNorth (10°)3.5 mphScattered Clouds
10:51 PM70.0 °F51.1 °F51 %29.85 in10.0 miCalmScattered Clouds
11:51 PM66.0 °F53.1 °F63 %29.84 in10.0 miEast (100°)3.5 mphScattered Clouds
Hourly data recorded from KJFK, located miles away from Brooklyn, New York







STORIES FROM OUR PARTNERS